Weather History for Fulton, NY

Change the Weather History Date:

Tuesday, February 26, 2013

  Actual Average (KSYR) Record (KSYR)
Temperature  
Mean Temperature 30 °F 28 °F  
Max Temperature 42 °F 37 °F 64 °F (1976)
Min Temperature 19 °F 20 °F -10 °F (1990)
Degree Days  
Heating Degree Days 34 37  
Month to date heating degree days 1022  
Since 1 July heating degree days 4758  
Cooling Degree Days 0 0  
Month to date cooling degree days 0  
Year to date cooling degree days 0  
Moisture  
Dew Point 23 °F    
Average Humidity 69    
Maximum Humidity 92    
Minimum Humidity 49    
Precipitation  
Precipitation 0.10 in 0.08 in 1.15 in (1979)
Month to date precipitation 1.90  
Year to date precipitation 4.40  
Snow  
Snow 0.00 in 0.80 in 8.20 in (2005)
Month to date snowfall 23.6  
Since 1 July snowfall 100.2  
Snow Depth -    
Sea Level Pressure  
Sea Level Pressure 30.14 in    
Wind  
Wind Speed 5 mph (ESE)    
Max Wind Speed 15 mph    
Max Gust Speed 24 mph    
Visibility 9 miles    
Events Rain    
T = Trace of Precipitation, MM = Missing Value Source: NWS Daily Summary

Daily Weather History Graph

Daily Weather History Graph

Search for Another Location

Airport:

Trip Planner

Search our weather history database for the weather conditions in past years. The results will help you decide how hot, cold, wet, or windy it might be!

Date:

Astronomy

Feb. 26, 2013 Rise Set
Actual Time 6:46 AM EST 5:51 PM EST
Civil Twilight 6:17 AM EST 6:19 PM EST
Nautical Twilight 5:44 AM EST 6:52 PM EST
Astronomical Twilight 5:11 AM EST 7:25 PM EST
Moon 7:09 PM EST (2/26) 6:45 AM EST (2/26)
Length of Visible Light 12h 02m
Length of Day
11h 04m
Full, 99% of the Moon is Illuminated
Feb 26
Full
Mar 4
Last Quarter
Mar 11
New
Mar 19
First Quarter
Mar 27
Full

Hourly Weather History & Observations

Time (EST) Temp. Windchill Dew Point Humidity Pressure Visibility Wind Dir Wind Speed Gust Speed Precip Events Conditions
12:54 AM 26.1 °F - 23.0 °F 88% 30.26 in 10.0 mi Calm Calm - N/A   Overcast
1:54 AM 23.0 °F 18.4 °F 19.9 °F 88% 30.26 in 9.0 mi East 3.5 mph - N/A   Clear
2:54 AM 21.0 °F - 19.0 °F 92% 30.26 in 5.0 mi Calm Calm - N/A   Clear
3:54 AM 21.0 °F 16.2 °F 18.0 °F 88% 30.25 in 7.0 mi ESE 3.5 mph - N/A   Clear
4:54 AM 21.0 °F 16.2 °F 18.0 °F 88% 30.27 in 7.0 mi East 3.5 mph - N/A   Clear
5:54 AM 19.9 °F 14.9 °F 17.1 °F 89% 30.27 in 7.0 mi East 3.5 mph - N/A   Clear
6:54 AM 21.0 °F 14.6 °F 18.0 °F 88% 30.25 in 8.0 mi ESE 4.6 mph - N/A   Clear
7:54 AM 24.1 °F 16.0 °F 21.0 °F 88% 30.25 in 10.0 mi East 6.9 mph - N/A   Clear
8:54 AM 28.0 °F 20.8 °F 21.9 °F 78% 30.25 in 10.0 mi East 6.9 mph - N/A   Clear
9:54 AM 33.1 °F 27.7 °F 23.0 °F 66% 30.24 in 10.0 mi Variable 5.8 mph - N/A   Clear
10:54 AM 36.0 °F 30.3 °F 23.0 °F 59% 30.22 in 10.0 mi ESE 6.9 mph - N/A   Clear
11:54 AM 39.0 °F 34.0 °F 25.0 °F 57% 30.20 in 10.0 mi East 6.9 mph - N/A   Clear
12:54 PM 42.1 °F 36.6 °F 24.1 °F 49% 30.15 in 10.0 mi East 9.2 mph - N/A   Clear
1:54 PM 42.1 °F 35.2 °F 24.1 °F 49% 30.11 in 10.0 mi ESE 12.7 mph 21.9 mph N/A   Clear
2:54 PM 42.1 °F 36.6 °F 24.1 °F 49% 30.09 in 10.0 mi ESE 9.2 mph - N/A   Clear
3:54 PM 41.0 °F 35.8 °F 26.1 °F 55% 30.07 in 10.0 mi ESE 8.1 mph 18.4 mph N/A   Clear
4:54 PM 41.0 °F 37.1 °F 26.1 °F 55% 30.04 in 10.0 mi Variable 5.8 mph 16.1 mph N/A   Clear
5:54 PM 39.9 °F 35.1 °F 26.1 °F 58% 30.04 in 10.0 mi Variable 6.9 mph - N/A   Clear
6:54 PM 39.0 °F 32.8 °F 25.0 °F 57% 30.03 in 10.0 mi East 9.2 mph 16.1 mph N/A   Clear
7:54 PM 39.0 °F 34.8 °F 26.1 °F 60% 30.02 in 10.0 mi Variable 5.8 mph - N/A   Clear
8:54 PM 37.9 °F 31.5 °F 25.0 °F 60% 29.97 in 10.0 mi East 9.2 mph 17.3 mph N/A   Clear
9:54 PM 37.9 °F 29.2 °F 24.1 °F 57% 29.92 in 10.0 mi ESE 15.0 mph 24.2 mph N/A   Overcast
10:54 PM 37.0 °F 30.4 °F 25.0 °F 62% 29.93 in 10.0 mi East 9.2 mph 23.0 mph 0.00 in Rain Light Rain
11:54 PM 35.1 °F 26.9 °F 28.0 °F 76% 29.93 in 6.0 mi East 11.5 mph 19.6 mph 0.10 in Rain Rain